QPF
0.01 0.09 0.12 0.13 0.16 0.03 0.00 0.00 0.00 0.00 0.00 0.00 0.00 0.00 0.00 0.00 0.00 0.00 0.00 0.00 0.00 0.00 0.00 0.00 0.00 0.00 0.00 0.00 0.00 0.00 0.00 0.00 0.01 0.00 0.00 0.00 0.00 0.00 0.00 0.01 0.00 0.00 0.00
0.21 0.12 0.44 0.49 0.46 0.25 0.07 0.01 0.00 0.00 0.00 0.00 0.00 0.00 0.00 0.00 0.00 0.00 0.00 0.00 0.00 0.00 0.00 0.00 0.00 0.00 0.00 0.00 0.00 0.00 0.00 0.00 0.00 0.01 0.02 0.00 0.00 0.00 0.01 0.05 0.04 0.00 0.00
0.05 0.07 0.11 0.24 0.26 0.30 0.24 0.01 0.00 0.00 0.00 0.00 0.00 0.00 0.00 0.00 0.00 0.00 0.00 0.00 0.00 0.01 0.01 0.00 0.00 0.00 0.00 0.00 0.00 0.00 0.00 0.00 0.00 0.05 0.03 0.00 0.01 0.00 0.04 0.14 0.13 0.02 0.00
0.00 0.00 0.01 0.03 0.06 0.10 0.10 0.01 0.03 0.02 0.00 0.00 0.00 0.00 0.00 0.00 0.00 0.00 0.00 0.00 0.00 0.00 0.02 0.01 0.00 0.00 0.00 0.00 0.00 0.00 0.00 0.00 0.00 0.01 0.03 0.00 0.00 0.00 0.00 0.01 0.02 0.00 0.00
0.00 0.00 0.00 0.00 0.00 0.00 0.01 0.01 0.00 0.01 0.04 0.04 0.01 0.00 0.00 0.00 0.00 0.00 0.00 0.00 0.01 0.01 0.00 0.00 0.00 0.00 0.00 0.02 0.02 0.00 0.00 0.00 0.00 0.00 0.00 0.01 0.00 0.00 0.00 0.02 0.00 0.00 0.00
0.00 0.00 0.00 0.00 0.00 0.00 0.00 0.00 0.00 0.00 0.00 0.00 0.00 0.05 0.03 0.00 0.01 0.01 0.00 0.00 0.00 0.00 0.00 0.00 0.00 0.00 0.00 0.00 0.00 0.01 0.05 0.02 0.00 0.00 0.00 0.00 0.00 0.00 0.00 0.03 0.01 0.01 0.00
0.00 0.00 0.00 0.00 0.00 0.00 0.00 0.00 0.00 0.00 0.00 0.00 0.00 0.04 0.09 0.04 0.01 0.01 0.05 0.03 0.01 0.00 0.00 0.00 0.00 0.00 0.00 0.00 0.00 0.01 0.05 0.07 0.02 0.00 0.00 0.00 0.00 0.00 0.00 0.00 0.00 0.00 0.00
0.00 0.00 0.00 0.00 0.00 0.00 0.00 0.00 0.00 0.00 0.00 0.00 0.00 0.01 0.05 0.08 0.17 0.24 0.32 0.16 0.04 0.01 0.01 0.00 0.00 0.00 0.00 0.00 0.00 0.00 0.00 0.01 0.05 0.02 0.00 0.00 0.00 0.02 0.00 0.00 0.00 0.00 0.01
0.00 0.00 0.00 0.00 0.00 0.00 0.00 0.00 0.00 0.00 0.00 0.00 0.00 0.00 0.00 0.01 0.06 0.17 0.33 0.30 0.11 0.03 0.03 0.03 0.00 0.00 0.00 0.01 0.01 0.00 0.00 0.00 0.00 0.00 0.01 0.01 0.01 0.04 0.03 0.00 0.00 0.00 0.00
0.00 0.00 0.00 0.00 0.00 0.00 0.00 0.00 0.00 0.00 0.00 0.00 0.00 0.00 0.00 0.00 0.00 0.00 0.05 0.21 0.27 0.17 0.09 0.08 0.09 0.06 0.10 0.13 0.05 0.02 0.00 0.00 0.00 0.01 0.00 0.00 0.02 0.04 0.01 0.00 0.00 0.00 0.00
0.00 0.00 0.00 0.00 0.00 0.00 0.00 0.00 0.00 0.00 0.00 0.00 0.00 0.00 0.00 0.00 0.00 0.00 0.00 0.03 0.12 0.21 0.14 0.14 0.16 0.14 0.13 0.13 0.11 0.06 0.00 0.03 0.06 0.05 0.01 0.00 0.00 0.00 0.00 0.00 0.00 0.00 0.00
0.00 0.00 0.00 0.00 0.00 0.00 0.00 0.00 0.00 0.00 0.00 0.00 0.00 0.00 0.00 0.00 0.00 0.00 0.00 0.00 0.02 0.06 0.08 0.07 0.07 0.09 0.08 0.09 0.06 0.01 0.03 0.06 0.02 0.02 0.00 0.00 0.00 0.00 0.00 0.00 0.02 0.02 0.00
0.00 0.00 0.00 0.00 0.00 0.00 0.00 0.00 0.00 0.00 0.00 0.00 0.00 0.00 0.00 0.00 0.00 0.00 0.00 0.00 0.00 0.00 0.00 0.00 0.01 0.03 0.04 0.03 0.01 0.01 0.05 0.03 0.03 0.01 0.00 0.00 0.00 0.00 0.00 0.00 0.04 0.04 0.01
0.00 0.00 0.00 0.00 0.00 0.00 0.00 0.00 0.00 0.00 0.00 0.00 0.00 0.00 0.00 0.00 0.00 0.00 0.00 0.00 0.00 0.00 0.00 0.00 0.00 0.00 0.00 0.00 0.00 0.00 0.00 0.00 0.01 0.00 0.00 0.00 0.00 0.00 0.00 0.00 0.02 0.03 0.03
0.00 0.00 0.00 0.00 0.00 0.00 0.00 0.00 0.00 0.00 0.00 0.00 0.00 0.00 0.00 0.00 0.00 0.00 0.00 0.00 0.00 0.00 0.00 0.00 0.00 0.00 0.00 0.00 0.00 0.00 0.00 0.00 0.00 0.00 0.00 0.00 0.00 0.00 0.00 0.00 0.00 0.00 0.00
0.00 0.00 0.00 0.00 0.00 0.00 0.00 0.00 0.00 0.00 0.00 0.00 0.00 0.00 0.00 0.00 0.00 0.00 0.00 0.00 0.00 0.00 0.00 0.00 0.00 0.00 0.00 0.00 0.00 0.00 0.00 0.00 0.00 0.00 0.00 0.00 0.00 0.00 0.01 0.01 0.00 0.00 0.00
0.00 0.00 0.00 0.00 0.00 0.00 0.00 0.01 0.00 0.00 0.00 0.00 0.00 0.00 0.00 0.00 0.00 0.00 0.00 0.00 0.00 0.00 0.00 0.00 0.00 0.00 0.00 0.00 0.00 0.00 0.00 0.00 0.00 0.00 0.00 0.00 0.00 0.00 0.04 0.04 0.01 0.00 0.00
0.00 0.00 0.00 0.00 0.00 0.00 0.01 0.00 0.00 0.00 0.00 0.00 0.00 0.00 0.00 0.00 0.00 0.00 0.00 0.00 0.00 0.00 0.00 0.00 0.00 0.00 0.00 0.00 0.00 0.01 0.00 0.00 0.00 0.00 0.00 0.00 0.00 0.00 0.00 0.02 0.00 0.00 0.00
0.00 0.00 0.00 0.00 0.00 0.00 0.00 0.00 0.00 0.00 0.00 0.00 0.00 0.00 0.00 0.00 0.00 0.00 0.00 0.00 0.00 0.00 0.00 0.00 0.00 0.00 0.00 0.00 0.00 0.00 0.00 0.00 0.01 0.03 0.02 0.01 0.02 0.04 0.02 0.03 0.01 0.00 0.01
0.00 0.00 0.00 0.00 0.00 0.00 0.00 0.00 0.00 0.00 0.00 0.00 0.00 0.00 0.00 0.00 0.00 0.00 0.00 0.01 0.01 0.00 0.00 0.00 0.00 0.00 0.00 0.00 0.00 0.00 0.02 0.04 0.06 0.09 0.07 0.05 0.05 0.06 0.02 0.02 0.00 0.00 0.00
0.00 0.00 0.00 0.00 0.00 0.00 0.00 0.00 0.00 0.00 0.00 0.00 0.00 0.00 0.00 0.00 0.00 0.00 0.00 0.01 0.02 0.01 0.00 0.00 0.00 0.00 0.00 0.00 0.00 0.00 0.00 0.02 0.05 0.07 0.08 0.12 0.08 0.06 0.05 0.05 0.05 0.03 0.01
0.00 0.00 0.00 0.00 0.00 0.00 0.00 0.00 0.00 0.00 0.00 0.00 0.00 0.00 0.00 0.00 0.00 0.02 0.02 0.02 0.02 0.02 0.01 0.00 0.00 0.00 0.00 0.00 0.00 0.00 0.00 0.00 0.01 0.02 0.05 0.09 0.09 0.08 0.07 0.05 0.03 0.01 0.00
0.00 0.00 0.00 0.00 0.00 0.00 0.00 0.00 0.00 0.00 0.00 0.00 0.00 0.00 0.00 0.01 0.01 0.02 0.04 0.05 0.04 0.02 0.01 0.00 0.00 0.00 0.00 0.01 0.01 0.02 0.01 0.01 0.00 0.02 0.05 0.07 0.10 0.08 0.04 0.01 0.00 0.00 0.00
0.00 0.00 0.00 0.00 0.00 0.00 0.00 0.00 0.00 0.00 0.00 0.00 0.00 0.01 0.02 0.08 0.10 0.10 0.09 0.07 0.05 0.04 0.03 0.01 0.02 0.01 0.01 0.05 0.05 0.03 0.03 0.01 0.00 0.00 0.01 0.03 0.06 0.05 0.03 0.00 0.00 0.00 0.00
0.00 0.00 0.00 0.00 0.00 0.00 0.00 0.00 0.00 0.00 0.00 0.00 0.00 0.01 0.02 0.04 0.05 0.06 0.04 0.04 0.04 0.03 0.04 0.07 0.06 0.03 0.02 0.03 0.08 0.10 0.10 0.07 0.02 0.03 0.04 0.05 0.07 0.08 0.06 0.03 0.01 0.00 0.00
0.00 0.00 0.00 0.00 0.00 0.00 0.00 0.00 0.00 0.00 0.00 0.00 0.00 0.00 0.00 0.01 0.03 0.02 0.02 0.03 0.03 0.04 0.07 0.08 0.06 0.03 0.01 0.02 0.03 0.06 0.10 0.10 0.07 0.06 0.12 0.16 0.16 0.13 0.09 0.06 0.03 0.01 0.00
MSLP
1012.80 1013.19 1013.50 1013.75 1014.20 1014.56 1014.68 1014.61 1014.66 1014.83 1015.16 1015.22 1015.15 1015.09 1015.06 1015.13 1015.28 1015.60 1015.88 1016.11 1016.35 1016.45 1016.51 1016.71 1016.77 1016.79 1016.87 1017.08 1017.34 1017.56 1017.57 1017.73 1017.85 1017.41 1017.27 1016.71 1016.44 1016.34 1016.23 1016.34 1016.62 1016.75 1016.65
1012.96 1013.38 1013.62 1013.37 1012.75 1013.77 1013.89 1013.93 1014.49 1014.44 1014.61 1014.85 1015.04 1015.10 1014.90 1014.86 1014.97 1015.18 1015.28 1015.42 1015.70 1015.88 1015.87 1016.00 1016.09 1016.35 1016.37 1016.58 1016.84 1017.11 1017.25 1017.29 1017.30 1017.04 1016.69 1016.45 1016.34 1016.13 1016.04 1016.18 1016.11 1015.94 1015.98
1013.29 1013.39 1013.33 1013.64 1013.50 1013.27 1012.54 1012.83 1013.76 1013.91 1013.82 1014.28 1014.41 1014.35 1014.24 1014.22 1014.43 1014.59 1014.73 1014.82 1014.92 1014.98 1015.12 1015.23 1015.28 1015.61 1015.82 1015.97 1016.23 1016.43 1016.64 1016.69 1016.82 1016.70 1016.47 1016.31 1016.08 1015.95 1015.97 1015.98 1015.90 1015.58 1015.40
1013.66 1013.75 1013.67 1013.47 1013.45 1013.38 1013.26 1013.38 1013.54 1013.25 1013.33 1013.61 1013.51 1013.54 1013.47 1013.51 1013.62 1013.66 1013.96 1014.17 1014.26 1014.24 1014.32 1014.48 1014.51 1014.80 1015.02 1015.26 1015.51 1015.67 1015.82 1016.08 1016.30 1016.38 1016.27 1016.24 1016.09 1015.79 1015.63 1015.48 1015.56 1015.28 1015.15
1013.71 1013.74 1013.76 1013.58 1013.30 1013.19 1013.16 1012.95 1012.74 1012.73 1012.98 1012.94 1012.84 1012.81 1012.78 1012.79 1012.80 1013.02 1013.26 1013.32 1013.57 1013.70 1013.68 1013.70 1013.74 1013.82 1014.04 1014.32 1014.76 1014.93 1015.25 1015.49 1015.76 1015.86 1015.83 1015.84 1015.64 1015.54 1015.32 1015.11 1015.08 1015.13 1014.90
1014.00 1014.08 1013.94 1013.69 1013.41 1013.28 1013.09 1012.89 1012.62 1012.51 1012.45 1012.32 1012.12 1011.92 1011.99 1011.99 1011.93 1012.08 1012.25 1012.54 1012.63 1012.77 1012.83 1012.97 1012.92 1012.95 1013.17 1013.56 1013.86 1014.03 1014.18 1014.55 1014.83 1015.09 1015.10 1015.14 1014.97 1015.00 1014.90 1014.85 1014.99 1015.00 1014.70
1013.86 1013.74 1013.74 1013.70 1013.56 1013.37 1013.09 1012.77 1012.44 1012.17 1011.92 1011.76 1011.61 1011.55 1011.39 1011.39 1011.39 1011.40 1011.50 1011.68 1011.61 1011.62 1011.69 1011.82 1012.04 1011.99 1012.25 1012.67 1013.06 1013.30 1013.42 1013.53 1013.56 1013.79 1014.08 1014.13 1014.17 1014.22 1014.32 1014.42 1014.59 1014.63 1014.45
1013.99 1013.72 1013.50 1013.33 1013.20 1013.07 1012.92 1012.60 1012.20 1011.77 1011.47 1011.21 1011.04 1010.97 1010.92 1010.81 1010.72 1010.66 1010.85 1011.07 1010.76 1010.82 1010.88 1010.73 1010.77 1011.09 1011.36 1011.76 1012.24 1012.55 1012.61 1012.66 1012.84 1012.94 1012.97 1013.01 1013.09 1013.22 1013.63 1013.65 1013.79 1014.14 1014.32
1013.72 1013.56 1013.31 1013.11 1012.90 1012.65 1012.38 1012.09 1011.72 1011.36 1010.98 1010.65 1010.45 1010.35 1010.33 1010.20 1010.13 1010.05 1010.20 1010.30 1010.23 1009.83 1010.27 1010.43 1010.14 1010.17 1010.56 1011.07 1011.48 1011.80 1011.82 1011.68 1011.59 1011.84 1011.97 1012.19 1012.27 1012.50 1012.73 1013.52 1013.69 1013.87 1013.81
1013.46 1013.18 1012.95 1012.79 1012.56 1012.22 1011.86 1011.52 1011.16 1010.88 1010.53 1010.21 1009.83 1009.59 1009.47 1009.41 1009.44 1009.37 1009.40 1009.55 1009.54 1009.31 1007.62 1009.43 1009.95 1008.98 1009.64 1010.15 1010.67 1010.81 1010.95 1010.94 1011.35 1011.73 1012.05 1012.19 1012.15 1012.14 1012.52 1012.46 1012.52 1012.90 1013.06
1013.38 1013.04 1012.72 1012.45 1012.18 1011.78 1011.39 1011.09 1010.79 1010.40 1010.03 1009.67 1009.36 1008.98 1008.75 1008.70 1008.69 1008.68 1008.61 1008.72 1008.60 1008.67 1008.71 1009.00 1008.62 1009.01 1009.89 1010.12 1010.37 1010.47 1010.37 1010.34 1010.46 1010.89 1011.09 1011.22 1011.30 1011.49 1011.86 1011.93 1011.78 1011.78 1011.93
1012.99 1012.59 1012.22 1011.91 1011.55 1011.16 1010.89 1010.47 1010.12 1009.81 1009.51 1009.14 1008.81 1008.40 1008.09 1007.86 1007.82 1007.89 1007.91 1007.89 1007.64 1007.62 1007.72 1008.01 1008.19 1009.01 1008.75 1009.99 1010.39 1009.92 1009.95 1010.29 1010.21 1010.18 1010.18 1010.13 1010.34 1010.48 1010.69 1010.72 1010.87 1011.00 1010.78
1012.91 1012.57 1012.10 1011.42 1010.94 1010.56 1010.24 1009.82 1009.56 1009.31 1009.02 1008.57 1008.24 1007.85 1007.38 1007.14 1007.12 1007.15 1007.24 1007.14 1006.98 1006.81 1006.84 1007.02 1007.24 1007.16 1006.91 1008.48 1009.30 1008.94 1009.15 1009.53 1009.60 1009.32 1009.06 1008.84 1009.07 1009.39 1009.64 1009.88 1009.98 1010.34 1010.45
1012.89 1012.45 1011.93 1011.34 1010.60 1010.11 1009.56 1009.31 1008.96 1008.57 1008.26 1007.97 1007.67 1007.27 1006.88 1006.64 1006.46 1006.41 1006.76 1006.93 1006.87 1006.74 1006.63 1006.84 1007.16 1007.03 1006.88 1006.59 1007.91 1007.05 1007.88 1008.09 1008.40 1008.04 1007.59 1007.65 1008.03 1008.68 1008.86 1009.04 1009.40 1009.82 1010.15
1012.79 1012.27 1011.71 1011.08 1010.33 1009.69 1009.19 1008.60 1008.12 1007.70 1007.55 1007.27 1006.89 1006.56 1006.23 1006.00 1005.61 1005.75 1005.94 1006.17 1006.27 1006.15 1006.26 1006.46 1006.76 1007.13 1007.24 1007.33 1007.05 1006.65 1006.72 1007.27 1007.54 1007.43 1006.86 1006.95 1007.19 1007.60 1007.66 1008.10 1008.27 1008.96 1009.29
1012.55 1011.89 1011.28 1010.72 1010.04 1009.29 1008.62 1007.82 1007.20 1006.81 1006.52 1006.37 1006.02 1006.03 1005.36 1005.24 1004.88 1005.03 1005.32 1005.43 1005.44 1005.57 1006.07 1005.75 1005.66 1005.82 1005.94 1005.83 1005.73 1005.46 1005.98 1006.21 1005.94 1006.64 1006.32 1006.24 1006.54 1006.59 1006.72 1007.15 1007.48 1007.91 1008.23
1012.13 1011.46 1010.81 1010.17 1009.40 1008.75 1008.05 1007.40 1006.61 1005.63 1005.48 1005.20 1005.05 1004.88 1004.96 1004.62 1004.17 1004.29 1004.65 1004.94 1004.97 1005.69 1005.37 1004.90 1004.67 1004.55 1004.50 1004.62 1004.74 1004.84 1005.04 1004.79 1004.59 1005.21 1005.18 1005.24 1005.76 1005.83 1005.95 1006.16 1006.49 1006.99 1007.27
1011.76 1011.08 1010.43 1009.67 1008.88 1008.21 1007.56 1006.93 1006.34 1005.68 1004.82 1004.11 1003.94 1004.11 1003.64 1003.82 1003.82 1003.79 1004.20 1004.84 1004.92 1004.57 1004.09 1003.96 1003.75 1003.52 1003.58 1003.69 1003.79 1003.95 1003.64 1003.52 1003.64 1003.91 1004.00 1004.39 1004.34 1004.54 1004.80 1005.00 1005.32 1005.72 1006.10
1011.50 1010.90 1010.32 1009.60 1008.89 1008.25 1007.47 1006.74 1006.05 1005.36 1004.62 1003.85 1003.33 1003.08 1003.06 1003.06 1003.11 1003.30 1003.61 1003.52 1003.26 1002.94 1002.70 1002.53 1002.57 1002.83 1002.82 1002.82 1002.94 1002.88 1002.72 1002.86 1002.81 1002.93 1003.17 1003.34 1003.10 1003.14 1003.44 1003.83 1004.07 1004.38 1004.87
1011.65 1011.13 1010.45 1009.71 1008.96 1008.27 1007.63 1006.95 1006.16 1005.26 1004.52 1003.92 1003.30 1002.74 1002.39 1002.78 1002.65 1002.55 1002.60 1002.50 1002.20 1001.83 1001.64 1001.48 1001.34 1001.50 1001.77 1001.76 1001.85 1001.86 1001.99 1001.96 1001.81 1001.71 1001.79 1001.91 1002.02 1002.00 1002.30 1002.56 1002.89 1003.32 1003.86
1011.88 1011.22 1010.59 1009.85 1009.23 1008.59 1007.92 1007.29 1006.56 1005.86 1005.23 1004.54 1003.78 1003.01 1002.41 1001.75 1001.29 1001.17 1001.17 1001.21 1001.10 1000.92 1000.69 1000.55 1000.52 1000.57 1000.53 1000.58 1000.73 1001.00 1000.84 1000.45 1000.39 1000.28 1000.37 1000.57 1000.70 1000.89 1001.35 1001.62 1001.68 1002.31 1002.88
1012.01 1011.51 1010.77 1010.09 1009.48 1008.83 1008.25 1007.68 1007.08 1006.44 1005.73 1004.90 1003.89 1002.88 1001.70 1000.84 1000.49 1000.17 999.97 999.86 999.89 1000.01 999.84 999.66 999.56 999.52 999.61 999.66 999.63 999.61 999.43 999.34 999.22 999.06 999.16 999.47 999.80 999.95 1000.43 1000.80 1000.98 1001.51 1002.06
1012.09 1011.54 1011.01 1010.48 1009.91 1009.27 1008.59 1008.14 1007.54 1006.92 1006.13 1005.24 1004.23 1003.02 1001.94 1000.53 1000.08 999.81 999.39 998.97 998.98 999.06 999.09 999.08 998.92 998.64 998.62 998.64 998.70 998.51 998.45 998.12 998.04 997.93 998.14 998.44 998.67 998.96 999.37 999.67 999.94 1000.49 1000.99
1012.25 1011.76 1011.41 1010.97 1010.39 1009.72 1009.12 1008.60 1007.93 1007.26 1006.53 1005.57 1004.73 1003.67 1003.08 1001.98 1000.95 999.98 999.35 998.66 998.37 998.30 998.13 998.17 998.15 998.08 997.94 997.88 997.76 997.74 997.48 997.28 997.37 997.21 997.43 997.59 998.06 998.32 998.38 998.71 998.87 999.31 999.76
1012.47 1011.99 1011.67 1011.32 1010.71 1010.16 1009.55 1008.94 1008.36 1007.74 1007.06 1006.40 1005.70 1004.90 1003.98 1002.99 1002.18 1001.30 1000.49 999.78 999.28 999.04 999.06 999.09 999.10 999.07 998.89 998.57 998.31 997.85 997.54 997.33 996.35 996.07 996.37 996.81 996.97 997.25 997.68 997.81 997.82 998.26 998.65
1012.82 1012.31 1012.01 1011.62 1011.13 1010.63 1010.09 1009.48 1008.90 1008.42 1007.94 1007.35 1006.74 1006.02 1005.16 1004.17 1003.47 1002.84 1002.09 1001.39 1000.80 1000.53 1000.32 1000.10 999.89 999.82 999.64 998.93 998.58 997.50 997.13 996.38 995.80 995.75 995.72 995.88 995.83 996.09 996.65 997.06 996.84 997.12 997.58
Thickness
5783 5780 5776 5774 5770 5767 5767 5768 5769 5770 5765 5765 5766 5767 5766 5766 5765 5762 5760 5757 5756 5756 5758 5756 5754 5756 5756 5754 5753 5751 5750 5748 5742 5751 5756 5763 5764 5766 5770 5771 5770 5771 5774
5780 5774 5772 5769 5763 5770 5771 5776 5768 5768 5766 5763 5762 5762 5764 5763 5762 5760 5758 5757 5755 5754 5757 5758 5757 5756 5755 5754 5752 5750 5748 5750 5747 5747 5755 5758 5759 5762 5766 5767 5769 5771 5774
5773 5771 5772 5769 5770 5773 5779 5777 5770 5767 5769 5762 5761 5762 5763 5764 5761 5760 5758 5757 5756 5756 5756 5757 5758 5757 5754 5753 5752 5750 5749 5750 5749 5748 5751 5755 5756 5759 5761 5763 5767 5771 5773
5766 5764 5764 5765 5766 5768 5771 5770 5767 5768 5767 5762 5764 5763 5764 5763 5761 5760 5757 5754 5754 5755 5755 5756 5758 5758 5757 5754 5752 5752 5752 5748 5747 5747 5748 5749 5750 5756 5760 5762 5761 5769 5771
5760 5759 5756 5758 5761 5761 5761 5763 5766 5767 5762 5763 5764 5761 5761 5761 5760 5757 5755 5754 5751 5750 5753 5755 5758 5760 5759 5758 5754 5752 5751 5748 5746 5745 5745 5746 5748 5750 5752 5758 5761 5764 5769
5752 5750 5751 5752 5753 5753 5753 5753 5755 5757 5758 5760 5761 5761 5758 5758 5759 5756 5755 5752 5751 5750 5749 5751 5755 5758 5759 5757 5756 5756 5756 5751 5747 5746 5747 5746 5749 5750 5752 5754 5756 5758 5760
5744 5745 5745 5745 5745 5746 5748 5749 5751 5751 5753 5753 5754 5753 5753 5752 5750 5750 5749 5750 5750 5751 5751 5751 5751 5756 5756 5756 5753 5753 5755 5756 5757 5754 5749 5750 5750 5752 5755 5754 5753 5755 5756
5733 5736 5737 5738 5738 5738 5738 5740 5742 5745 5745 5745 5745 5744 5743 5745 5744 5743 5741 5742 5747 5747 5748 5751 5752 5750 5753 5752 5749 5748 5751 5754 5755 5755 5755 5755 5757 5758 5757 5760 5760 5756 5756
5731 5730 5731 5731 5731 5730 5731 5733 5735 5735 5735 5735 5736 5735 5734 5736 5736 5735 5732 5734 5733 5729 5734 5740 5745 5747 5746 5743 5742 5741 5744 5750 5753 5755 5756 5755 5757 5759 5759 5755 5753 5751 5750
5724 5724 5723 5721 5721 5722 5722 5722 5724 5725 5726 5726 5727 5728 5728 5728 5727 5726 5725 5724 5723 5723 5740 5720 5729 5747 5740 5738 5741 5742 5742 5746 5744 5745 5746 5747 5750 5752 5754 5758 5758 5752 5751
5714 5714 5714 5714 5713 5714 5714 5714 5713 5713 5713 5713 5714 5719 5720 5721 5721 5718 5718 5718 5720 5718 5723 5721 5728 5727 5724 5726 5730 5736 5741 5743 5743 5743 5744 5746 5749 5750 5750 5751 5755 5757 5755
5708 5709 5709 5708 5708 5708 5706 5706 5705 5704 5702 5703 5703 5706 5709 5713 5712 5712 5711 5711 5718 5717 5719 5718 5721 5713 5704 5713 5715 5730 5731 5730 5735 5737 5741 5746 5746 5749 5750 5751 5751 5754 5760
5697 5696 5697 5699 5699 5699 5697 5696 5694 5692 5691 5693 5693 5695 5699 5700 5702 5702 5703 5704 5708 5713 5714 5712 5713 5717 5714 5708 5712 5723 5722 5725 5728 5733 5740 5745 5747 5747 5748 5750 5750 5750 5752
5684 5684 5685 5686 5688 5687 5686 5684 5683 5682 5681 5681 5683 5685 5688 5689 5690 5693 5691 5691 5694 5698 5703 5701 5699 5709 5715 5717 5711 5726 5720 5724 5725 5733 5743 5746 5743 5739 5740 5744 5743 5743 5742
5671 5672 5673 5674 5676 5677 5675 5675 5675 5675 5674 5674 5675 5678 5680 5681 5684 5683 5682 5682 5685 5690 5689 5689 5692 5692 5690 5689 5699 5710 5715 5715 5720 5726 5736 5738 5738 5736 5739 5739 5740 5738 5739
5661 5663 5664 5663 5663 5664 5665 5667 5668 5667 5666 5664 5666 5667 5674 5674 5676 5673 5671 5672 5674 5675 5676 5683 5689 5689 5688 5691 5695 5703 5705 5709 5721 5719 5727 5731 5731 5734 5735 5733 5734 5736 5736
5653 5655 5655 5654 5655 5656 5658 5659 5661 5664 5661 5659 5658 5659 5658 5665 5666 5664 5662 5661 5662 5659 5669 5677 5682 5684 5686 5687 5687 5691 5696 5709 5714 5712 5721 5726 5726 5729 5728 5729 5730 5730 5733
5644 5644 5646 5647 5649 5650 5650 5650 5651 5652 5654 5657 5655 5652 5655 5651 5652 5652 5649 5645 5651 5655 5667 5670 5675 5680 5683 5685 5687 5686 5695 5701 5705 5712 5717 5719 5726 5728 5729 5729 5729 5730 5730
5635 5636 5637 5637 5637 5637 5639 5641 5642 5643 5645 5649 5651 5648 5643 5641 5642 5640 5638 5648 5652 5656 5662 5668 5672 5672 5676 5679 5682 5686 5690 5693 5700 5706 5709 5713 5723 5727 5729 5730 5730 5728 5728
5624 5624 5625 5625 5627 5627 5627 5628 5630 5633 5636 5639 5641 5642 5642 5633 5637 5637 5634 5638 5646 5652 5657 5662 5668 5670 5670 5673 5675 5679 5681 5686 5692 5699 5707 5712 5718 5724 5724 5726 5728 5726 5725
5613 5614 5614 5615 5615 5615 5615 5616 5618 5620 5621 5623 5626 5629 5627 5632 5633 5635 5636 5636 5639 5645 5652 5657 5660 5663 5668 5669 5671 5671 5676 5684 5689 5697 5703 5709 5716 5718 5720 5722 5726 5724 5722
5604 5604 5606 5606 5606 5606 5606 5606 5607 5607 5609 5611 5615 5617 5619 5626 5629 5631 5635 5637 5639 5642 5648 5653 5657 5661 5663 5665 5666 5668 5672 5675 5682 5691 5699 5704 5707 5713 5714 5715 5718 5717 5716
5596 5598 5598 5599 5598 5598 5598 5597 5596 5596 5598 5601 5603 5606 5610 5622 5623 5625 5630 5635 5638 5642 5645 5648 5652 5657 5661 5664 5664 5666 5668 5671 5676 5685 5692 5697 5704 5707 5709 5712 5715 5714 5713
5589 5590 5590 5590 5590 5591 5591 5590 5590 5588 5590 5594 5593 5594 5595 5601 5609 5619 5625 5631 5635 5638 5644 5647 5649 5651 5655 5658 5661 5661 5667 5673 5675 5684 5689 5692 5695 5698 5705 5708 5711 5712 5710
5580 5582 5582 5581 5582 5583 5583 5583 5583 5583 5583 5583 5582 5582 5584 5589 5595 5601 5609 5617 5623 5627 5629 5631 5633 5634 5636 5640 5643 5649 5654 5660 5674 5684 5687 5688 5693 5697 5700 5704 5707 5707 5706
5570 5571 5571 5571 5572 5572 5573 5574 5574 5573 5572 5571 5571 5573 5574 5577 5580 5583 5590 5597 5603 5606 5610 5615 5617 5618 5620 5628 5631 5641 5649 5658 5668 5672 5683 5687 5692 5697 5698 5699 5704 5704 5702